Location: Boiro
(42.6475°N, 8.8834°W)
Time: 22:58:49
(UTC+01:00)

Altair - Pass Details

Date: 06 December 2021
Orbit: 1501 x 1683 km, 47.2° (Epoch: 18 January)

Event Time Altitude Azimuth Distance (km) Brightness Sun altitude
Rises 13:24:04 0° 168° (SSE) 4,840 11.4 24.8°
Reaches altitude 10° 13:30:31 10° 138° (SE) 3,812 10.4 24.8°
Maximum altitude 13:33:04 11° 122° (ESE) 3,691 10.0 24.8°
Drops below altitude 10° 13:35:37 10° 106° (ESE) 3,777 9.8 24.8°
Sets 13:41:49 0° 76° (ENE) 4,720 9.9 24.7°
